Home > Weather > Thompson > Past weeks

Flag for Canada Past Weather in Thompson, Manitoba, Canada — Yesterday and Last 2 Weeks

Now
57 °F

Partly cloudy.


Feels Like: 57 °F
Forecast: 56 / 72 °F
Wind: 2 mph from South

Location: Thompson

Current Time: Jul 28, 2016 at 5:32:56 AM

Latest Report: Jul 28, 2016 at 5:00 AM


Visibility: 15 mi

Pressure: 30.06 "Hg

Humidity: 82%

Dew Point: 52 °F

Location of ThompsonLocation

Past Weather in Thompson — Graph

°F

Thompson Temperature Yesterday

Maximum temperature yesterday: 75 °F (at 5:00 PM)
Minimum temperature yesterday: 37 °F (at 5:00 AM)
Average temperature yesterday: 59 °F

High & Low Weather Summary for the Past Weeks

 TemperatureHumidityPressure
High86 °F (Jul 20, 4:00 PM)100% (Jul 13, 4:00 AM)30.22 "Hg (Jul 13, 4:00 AM)
Low37 °F (Jul 18, 5:00 AM)30% (Jul 15, 3:00 PM)29.48 "Hg (Jul 16, 5:00 PM)
Average62 °F73%29.85 "Hg
* Reported Jul 13 4:00 AM — Jul 28 4:00 AM, Thompson, Weather by CustomWeather, © 2016

Note: Actual official high and low records may vary slightly from our data, if they occured in-between our weather recording intervals... More about our weather records

Advertising

Thompson Weather History for the Previous 24 Hours

Scroll right to see more
 ConditionsComfort  
Time TempWeatherWind HumidityBarometerVisibility
4:00 AM
Thu, Jul 28
59 °FPassing clouds.3 mph82%30.06 "Hg15 mi
3:00 AM57 °FPassing clouds.No wind82%30.07 "Hg15 mi
2:00 AM59 °FPartly cloudy.3 mph77%30.08 "Hg15 mi
1:00 AM61 °FPassing clouds.2 mph68%30.08 "Hg15 mi
12:00 AM63 °FPassing clouds.2 mph64%30.08 "Hg15 mi
11:00 PM
Wed, Jul 27
63 °FPassing clouds.3 mph68%30.08 "Hg15 mi
10:00 PM66 °FBroken clouds.3 mph60%30.09 "Hg15 mi
9:00 PM70 °FBroken clouds.3 mph50%30.08 "Hg15 mi
8:00 PM73 °FPartly sunny.5 mph44%30.09 "Hg15 mi
7:00 PM75 °FPartly sunny.5 mph39%30.09 "Hg15 mi
6:00 PM75 °FPartly sunny.5 mph36%30.10 "Hg15 mi
5:00 PM75 °FPartly sunny.6 mph36%30.12 "Hg15 mi
4:00 PM73 °FPartly sunny.7 mph41%30.14 "Hg15 mi
3:00 PM73 °FScattered clouds.3 mph41%30.14 "Hg15 mi
2:00 PM70 °FBroken clouds.5 mph46%30.16 "Hg15 mi
1:00 PM70 °FScattered clouds.2 mph50%30.17 "Hg15 mi
12:00 PM66 °FScattered clouds.2 mph52%30.19 "Hg15 mi
11:00 AM64 °FScattered clouds.6 mph60%30.19 "Hg15 mi
10:00 AM61 °FScattered clouds.3 mph72%30.21 "Hg15 mi
9:00 AM57 °FPassing clouds.No wind82%30.21 "Hg15 mi
8:00 AM50 °FPassing clouds.No wind94%30.22 "Hg15 mi
7:00 AM41 °FFog.No wind100%30.22 "Hg1 mi
6:00 AM37 °FFog.No wind93%30.22 "Hg3 mi
5:00 AM37 °FFog.No wind93%30.22 "Hg3 mi
Weather by CustomWeather, © 2016

See weather overviewHow to use our weather pages